SDM1010 UWKD-ULLI

Flight info

Callsign SDM1010
Flight time N/A
Altitude 32000
Route APTAR1G APTAR L158 IRGOS T613 DOGOB M864 IBROT T784 ROKUR P164 PINOK N50 GENPA GENPA1V
Aircraft B77W/H-SDE1E2E3FGHIJ2J3J4J5M1RWXY/LB1D1

Departure

Time N/A
Airport Kazan International Airport (UWKD)

Arrival

Time 2026-05-01 13:56
Airport Pulkovo Airport (ULLI)
Time Latitude Longitude Altitude Speed Heading
2026-05-01 12:28 55.59505 47.70272 26638 ft 475 kts 285°
2026-05-01 12:28 55.60444 47.64644 27056 ft 478 kts 285°
2026-05-01 12:28 55.62332 47.53279 27758 ft 485 kts 285°
2026-05-01 12:29 55.63279 47.47547 28131 ft 487 kts 285°
2026-05-01 12:29 55.64229 47.41784 28471 ft 489 kts 285°
2026-05-01 12:29 55.66121 47.30243 29532 ft 485 kts 285°
2026-05-01 12:30 55.68001 47.18707 30221 ft 489 kts 285°
2026-05-01 12:30 55.68943 47.12892 30406 ft 493 kts 285°
2026-05-01 12:30 55.69890 47.07030 30576 ft 496 kts 285°
2026-05-01 12:31 55.70840 47.01132 30777 ft 498 kts 285°
2026-05-01 12:31 55.71790 46.95214 30967 ft 500 kts 285°
2026-05-01 12:31 55.72741 46.89269 31220 ft 501 kts 285°
2026-05-01 12:31 55.73690 46.83316 31432 ft 502 kts 285°
2026-05-01 12:32 55.74638 46.77350 31651 ft 503 kts 285°
2026-05-01 12:32 55.76533 46.65362 32005 ft 506 kts 285°
2026-05-01 12:32 55.77484 46.59315 32065 ft 509 kts 285°
2026-05-01 12:33 55.79361 46.47139 32105 ft 512 kts 283°
2026-05-01 12:33 55.80593 46.34632 32121 ft 515 kts 278°
2026-05-01 12:34 55.81617 46.22106 32088 ft 499 kts 278°
2026-05-01 12:34 55.82102 46.16168 32097 ft 487 kts 278°
2026-05-01 12:34 55.82604 46.10103 32117 ft 492 kts 279°
2026-05-01 12:35 55.83615 45.98027 32119 ft 501 kts 279°
2026-05-01 12:35 55.84649 45.85668 32123 ft 508 kts 279°
2026-05-01 12:36 55.85679 45.73187 32122 ft 512 kts 279°
2026-05-01 12:36 55.86702 45.60605 32117 ft 514 kts 279°
2026-05-01 12:37 55.87549 45.50068 32120 ft 512 kts 279°
2026-05-01 12:37 55.88537 45.37605 32124 ft 511 kts 279°
2026-05-01 12:38 55.89518 45.25061 32126 ft 512 kts 279°
2026-05-01 12:38 55.90490 45.12478 32124 ft 512 kts 278°
2026-05-01 12:39 55.91449 44.99900 32125 ft 511 kts 278°
2026-05-01 12:39 55.92394 44.87322 32130 ft 512 kts 278°
2026-05-01 12:40 55.93326 44.74737 32132 ft 512 kts 278°
2026-05-01 12:40 55.94246 44.62136 32137 ft 513 kts 278°
2026-05-01 12:41 55.95154 44.49506 32139 ft 513 kts 278°
2026-05-01 12:41 55.96050 44.36867 32139 ft 513 kts 278°
2026-05-01 12:42 55.96927 44.24305 32140 ft 513 kts 278°
2026-05-01 12:42 55.97797 44.11662 32142 ft 514 kts 278°
2026-05-01 12:43 55.98224 44.05382 32131 ft 501 kts 278°
2026-05-01 12:43 55.98630 43.99335 32129 ft 482 kts 278°
2026-05-01 12:43 55.99020 43.93482 32131 ft 465 kts 278°
2026-05-01 12:43 55.99396 43.87810 32130 ft 455 kts 278°
2026-05-01 12:44 56.00148 43.76462 32239 ft 469 kts 278°
2026-05-01 12:44 56.00914 43.64705 32512 ft 482 kts 278°
2026-05-01 12:45 56.01678 43.52722 33143 ft 486 kts 278°
2026-05-01 12:45 56.02056 43.46723 33523 ft 486 kts 278°
2026-05-01 12:45 56.02431 43.40742 33918 ft 485 kts 278°
2026-05-01 12:46 56.02800 43.34746 34268 ft 485 kts 277°
2026-05-01 12:46 56.03011 43.28720 34563 ft 486 kts 274°
2026-05-01 12:46 56.03116 43.22692 34874 ft 486 kts 273°
2026-05-01 12:46 56.03194 43.16657 35155 ft 485 kts 272°
2026-05-01 12:47 56.03268 43.10621 35424 ft 486 kts 272°
2026-05-01 12:47 56.03348 43.04553 35506 ft 491 kts 273°
2026-05-01 12:47 56.03524 42.92265 35774 ft 495 kts 273°
2026-05-01 12:48 56.03612 42.86196 36040 ft 494 kts 272°
2026-05-01 12:48 56.03698 42.80019 36104 ft 499 kts 272°
2026-05-01 12:48 56.03862 42.67528 36152 ft 507 kts 272°
2026-05-01 12:49 56.04663 42.55011 36187 ft 509 kts 288°
2026-05-01 12:49 56.07458 42.43406 36210 ft 509 kts 304°
2026-05-01 12:50 56.11434 42.32876 36350 ft 511 kts 306°
2026-05-01 12:50 56.15404 42.22287 36552 ft 512 kts 305°
2026-05-01 12:51 56.17355 42.16923 36659 ft 512 kts 305°
2026-05-01 12:51 56.19299 42.11562 36788 ft 511 kts 306°
2026-05-01 12:51 56.23488 42.01375 37022 ft 510 kts 309°
2026-05-01 12:52 56.25665 41.96354 37135 ft 509 kts 310°
2026-05-01 12:52 56.30017 41.86306 37341 ft 509 kts 309°
2026-05-01 12:52 56.32181 41.81251 37436 ft 509 kts 309°
2026-05-01 12:53 56.36488 41.71096 37666 ft 509 kts 309°
2026-05-01 12:53 56.38633 41.66006 37761 ft 509 kts 309°
2026-05-01 12:53 56.40768 41.60930 37969 ft 506 kts 309°
2026-05-01 12:54 56.42887 41.55883 38154 ft 504 kts 309°
2026-05-01 12:54 56.47125 41.45765 38291 ft 506 kts 309°
2026-05-01 12:54 56.49255 41.40664 38311 ft 507 kts 309°
2026-05-01 12:55 56.53501 41.30465 38418 ft 508 kts 309°
2026-05-01 12:55 56.55625 41.25350 38505 ft 507 kts 309°
2026-05-01 12:55 56.57746 41.20230 38609 ft 507 kts 309°
2026-05-01 12:56 56.59745 41.15061 38681 ft 509 kts 303°
2026-05-01 12:56 56.62965 41.03612 38983 ft 507 kts 294°
2026-05-01 12:56 56.64134 40.97596 39169 ft 503 kts 290°
2026-05-01 12:57 56.65170 40.91534 39384 ft 500 kts 289°
2026-05-01 12:57 56.67160 40.79489 39784 ft 494 kts 289°
2026-05-01 12:57 56.68151 40.73533 40000 ft 491 kts 289°
2026-05-01 12:58 56.70149 40.61673 40129 ft 489 kts 289°
2026-05-01 12:59 56.73123 40.44071 40096 ft 486 kts 289°
2026-05-01 12:59 56.74113 40.38169 39810 ft 486 kts 289°
2026-05-01 12:59 56.76080 40.26375 38946 ft 487 kts 290°
2026-05-01 13:00 56.78046 40.14503 37803 ft 490 kts 290°
2026-05-01 13:00 56.79027 40.08542 37249 ft 491 kts 290°
2026-05-01 13:01 56.80986 39.96597 36123 ft 493 kts 290°
2026-05-01 13:01 56.81964 39.90601 35578 ft 493 kts 291°
2026-05-01 13:01 56.83918 39.78574 34479 ft 494 kts 291°
2026-05-01 13:02 56.84893 39.72557 33983 ft 493 kts 291°
2026-05-01 13:07 57.05232 38.41906 32171 ft 516 kts 292°
2026-05-01 13:07 57.06181 38.35548 32168 ft 517 kts 293°
2026-05-01 13:08 57.08074 38.22795 32167 ft 517 kts 293°
2026-05-01 13:08 57.09956 38.10016 32163 ft 517 kts 293°
2026-05-01 13:09 57.11822 37.97250 32162 ft 517 kts 293°
2026-05-01 13:09 57.13678 37.84447 32176 ft 518 kts 293°
2026-05-01 13:10 57.15522 37.71638 32165 ft 518 kts 293°
2026-05-01 13:10 57.17594 37.59015 32162 ft 509 kts 300°
2026-05-01 13:11 57.20213 37.46901 32169 ft 508 kts 301°
2026-05-01 13:11 57.22838 37.34902 32159 ft 507 kts 301°
2026-05-01 13:12 57.25428 37.22806 32157 ft 506 kts 300°
2026-05-01 13:12 57.27982 37.10695 32160 ft 506 kts 300°
2026-05-01 13:13 57.30525 36.98550 32158 ft 505 kts 300°
2026-05-01 13:13 57.33047 36.86435 32159 ft 504 kts 300°
2026-05-01 13:14 57.35547 36.74369 32169 ft 505 kts 300°
2026-05-01 13:14 57.38054 36.62197 32167 ft 505 kts 300°
2026-05-01 13:15 57.40543 36.50031 32165 ft 504 kts 300°
2026-05-01 13:15 57.43018 36.37859 32164 ft 504 kts 299°
2026-05-01 13:16 57.45485 36.25658 32164 ft 504 kts 299°
2026-05-01 13:16 57.47937 36.13464 32174 ft 503 kts 299°
2026-05-01 13:17 57.52803 35.89145 32179 ft 503 kts 299°
2026-05-01 13:18 57.56355 35.71265 32174 ft 503 kts 298°
2026-05-01 13:18 57.58764 35.59037 32173 ft 502 kts 298°
2026-05-01 13:19 57.61175 35.46816 32183 ft 501 kts 299°
2026-05-01 13:20 57.64927 35.28639 32180 ft 500 kts 299°
2026-05-01 13:20 57.67405 35.16517 32178 ft 499 kts 298°
2026-05-01 13:21 57.71472 34.98759 32181 ft 487 kts 308°
2026-05-01 13:21 57.75249 34.88507 32189 ft 476 kts 317°
2026-05-01 13:22 57.79617 34.79221 32188 ft 474 kts 319°
2026-05-01 13:22 57.84004 34.69975 32175 ft 474 kts 319°
2026-05-01 13:23 57.88347 34.60679 32172 ft 474 kts 318°
2026-05-01 13:23 57.92670 34.51335 32172 ft 474 kts 318°
2026-05-01 13:24 57.96988 34.41957 32170 ft 473 kts 318°
2026-05-01 13:25 58.03445 34.27877 32175 ft 472 kts 318°
2026-05-01 13:25 58.07730 34.18489 32178 ft 472 kts 318°
2026-05-01 13:26 58.12008 34.09078 32171 ft 471 kts 318°
2026-05-01 13:26 58.16281 33.99643 32171 ft 471 kts 318°
2026-05-01 13:27 58.19817 33.91803 32173 ft 471 kts 317°
2026-05-01 13:27 58.26875 33.76081 32181 ft 470 kts 317°
2026-05-01 13:28 58.32498 33.63476 32177 ft 469 kts 317°
2026-05-01 13:29 58.40922 33.44470 32172 ft 469 kts 317°
2026-05-01 13:31 58.53413 33.15992 32182 ft 462 kts 317°
2026-05-01 13:31 58.59630 33.01723 31814 ft 463 kts 316°
2026-05-01 13:32 58.63703 32.92303 30381 ft 454 kts 317°
2026-05-01 13:33 58.69646 32.78498 28206 ft 439 kts 316°
2026-05-01 13:33 58.73532 32.69448 26559 ft 437 kts 316°
2026-05-01 13:34 58.77357 32.60506 25030 ft 434 kts 315°
2026-05-01 13:34 58.81175 32.51529 24075 ft 419 kts 315°
2026-05-01 13:35 58.84787 32.42994 22955 ft 409 kts 315°
2026-05-01 13:35 58.86574 32.38772 22380 ft 404 kts 315°
2026-05-01 13:35 58.90092 32.30434 21283 ft 395 kts 315°
2026-05-01 13:36 58.91818 32.26334 20742 ft 391 kts 315°
2026-05-01 13:36 58.93532 32.22256 20198 ft 388 kts 315°
2026-05-01 13:36 58.96907 32.14200 19153 ft 382 kts 314°
2026-05-01 13:37 58.98576 32.10206 18636 ft 380 kts 314°
2026-05-01 13:37 59.00233 32.06232 18066 ft 378 kts 314°
2026-05-01 13:37 59.01877 32.02287 17500 ft 375 kts 314°
2026-05-01 13:37 59.03511 31.98354 16958 ft 372 kts 314°
2026-05-01 13:38 59.06713 31.90635 15912 ft 367 kts 313°
2026-05-01 13:38 59.08311 31.86772 15396 ft 365 kts 313°
2026-05-01 13:38 59.09893 31.82941 14870 ft 363 kts 313°
2026-05-01 13:39 59.11516 31.79201 14361 ft 359 kts 317°
2026-05-01 13:39 59.13273 31.75798 13839 ft 355 kts 320°
2026-05-01 13:39 59.15071 31.72516 13278 ft 353 kts 320°
2026-05-01 13:39 59.16861 31.69248 12748 ft 351 kts 320°
2026-05-01 13:40 59.18628 31.65971 12225 ft 350 kts 319°
2026-05-01 13:40 59.20375 31.62688 11717 ft 348 kts 319°
2026-05-01 13:40 59.22108 31.59403 11190 ft 346 kts 319°
2026-05-01 13:40 59.23826 31.56131 10743 ft 343 kts 319°
2026-05-01 13:41 59.25501 31.52928 10607 ft 331 kts 319°
2026-05-01 13:41 59.27116 31.49834 10472 ft 319 kts 319°
2026-05-01 13:41 59.28674 31.46844 10379 ft 308 kts 318°
2026-05-01 13:41 59.30169 31.43972 10303 ft 296 kts 319°
2026-05-01 13:42 59.31612 31.41196 10207 ft 285 kts 319°
2026-05-01 13:42 59.32996 31.38532 10135 ft 274 kts 319°
2026-05-01 13:42 59.34326 31.35968 10053 ft 263 kts 319°
2026-05-01 13:42 59.35599 31.33515 9831 ft 257 kts 319°
2026-05-01 13:43 59.36869 31.31067 9506 ft 255 kts 318°
2026-05-01 13:43 59.38139 31.28616 9162 ft 255 kts 318°
2026-05-01 13:43 59.39401 31.26177 8855 ft 253 kts 318°
2026-05-01 13:43 59.40632 31.23791 8723 ft 244 kts 318°
2026-05-01 13:44 59.41809 31.21507 8631 ft 233 kts 318°
2026-05-01 13:44 59.42944 31.19306 8391 ft 228 kts 317°
2026-05-01 13:44 59.44086 31.17089 7894 ft 235 kts 317°
2026-05-01 13:44 59.45263 31.14804 7483 ft 239 kts 317°
2026-05-01 13:45 59.46452 31.12490 7107 ft 242 kts 316°
2026-05-01 13:45 59.47653 31.10152 6692 ft 245 kts 316°
2026-05-01 13:45 59.48858 31.07802 6282 ft 248 kts 316°
2026-05-01 13:45 59.50081 31.05409 5964 ft 248 kts 315°
2026-05-01 13:46 59.51316 31.02994 5665 ft 246 kts 315°
2026-05-01 13:46 59.52495 31.00541 5341 ft 246 kts 311°
2026-05-01 13:46 59.53615 30.97985 5008 ft 247 kts 310°
2026-05-01 13:46 59.54725 30.95417 4782 ft 244 kts 310°
2026-05-01 13:47 59.55810 30.92906 4683 ft 241 kts 310°
2026-05-01 13:47 59.56883 30.90427 4507 ft 237 kts 310°
2026-05-01 13:47 59.57946 30.87978 4272 ft 231 kts 310°
2026-05-01 13:47 59.58976 30.85607 4130 ft 223 kts 310°
2026-05-01 13:48 59.59959 30.83340 3989 ft 213 kts 310°
2026-05-01 13:48 59.60904 30.81167 3873 ft 202 kts 310°
2026-05-01 13:48 59.61800 30.79112 3684 ft 195 kts 309°
2026-05-01 13:48 59.62661 30.77121 3473 ft 188 kts 309°
2026-05-01 13:49 59.63503 30.75182 3244 ft 183 kts 309°
2026-05-01 13:49 59.64320 30.73290 2982 ft 180 kts 309°
2026-05-01 13:49 59.65142 30.71391 2608 ft 180 kts 309°
2026-05-01 13:49 59.65923 30.69592 2508 ft 165 kts 309°
2026-05-01 13:50 59.66665 30.67891 2238 ft 165 kts 314°
2026-05-01 13:50 59.67621 30.66512 1846 ft 177 kts 326°
2026-05-01 13:50 59.68630 30.65162 1824 ft 168 kts 323°
2026-05-01 13:50 59.69559 30.63869 1928 ft 161 kts 323°
2026-05-01 13:51 59.70456 30.62620 2057 ft 155 kts 323°
2026-05-01 13:51 59.71353 30.61360 2186 ft 160 kts 323°
2026-05-01 13:51 59.72290 30.60059 2371 ft 169 kts 323°
2026-05-01 13:51 59.73251 30.58724 2429 ft 169 kts 323°
2026-05-01 13:52 59.74189 30.57335 2462 ft 169 kts 311°
2026-05-01 13:52 59.74706 30.55371 2516 ft 155 kts 290°
2026-05-01 13:52 59.75145 30.53332 2384 ft 165 kts 293°
2026-05-01 13:52 59.75621 30.51244 2369 ft 170 kts 298°
2026-05-01 13:53 59.76239 30.49271 2579 ft 167 kts 304°
2026-05-01 13:53 59.77685 30.45729 2481 ft 162 kts 302°
2026-05-01 13:53 59.78152 30.43707 2132 ft 162 kts 284°
2026-05-01 13:54 59.78410 30.41541 1759 ft 160 kts 284°
2026-05-01 13:54 59.78690 30.39431 1442 ft 155 kts 284°
2026-05-01 13:54 59.79019 30.37408 1084 ft 154 kts 289°
2026-05-01 13:54 59.79347 30.35389 777 ft 152 kts 286°
2026-05-01 13:55 59.79635 30.33415 526 ft 144 kts 287°
2026-05-01 13:55 59.79926 30.31554 268 ft 140 kts 287°
2026-05-01 13:55 59.80196 30.29751 87 ft 131 kts 287°
2026-05-01 13:55 59.80411 30.28321 85 ft 74 kts 287°
2026-05-01 13:56 59.80431 30.27806 88 ft 30 kts 260°
2026-05-01 13:56 59.80396 30.27556 88 ft 0 kts 251°
2026-05-01 13:56 59.80388 30.27508 91 ft 0 kts 252°
2026-05-01 13:57 59.80386 30.27496 90 ft 7 kts 252°
2026-05-01 13:57 59.80368 30.27395 90 ft 13 kts 248°
2026-05-01 13:57 59.80354 30.27159 86 ft 13 kts 277°
2026-05-01 13:57 59.80377 30.26985 90 ft 13 kts 286°
2026-05-01 13:58 59.80403 30.26813 90 ft 13 kts 287°
2026-05-01 13:58 59.80429 30.26640 87 ft 13 kts 287°
2026-05-01 13:58 59.80420 30.26509 89 ft 10 kts 222°
2026-05-01 13:58 59.80352 30.26459 88 ft 11 kts 186°
2026-05-01 13:59 59.80280 30.26429 89 ft 11 kts 196°
2026-05-01 13:59 59.80209 30.26387 88 ft 11 kts 196°
2026-05-01 13:59 59.80122 30.26336 88 ft 15 kts 196°
2026-05-01 13:59 59.80021 30.26277 88 ft 15 kts 197°
2026-05-01 14:00 59.79924 30.26219 88 ft 13 kts 197°
2026-05-01 14:00 59.79851 30.26176 88 ft 11 kts 197°
2026-05-01 14:00 59.79787 30.26138 90 ft 8 kts 196°
2026-05-01 14:00 59.79743 30.26089 90 ft 8 kts 237°
2026-05-01 14:01 59.79740 30.25992 88 ft 6 kts 279°
2026-05-01 14:01 59.79743 30.25967 90 ft 2 kts 283°
2026-05-01 14:01 59.79747 30.25935 89 ft 2 kts 285°
2026-05-01 14:01 59.79749 30.25919 89 ft 1 kts 284°
2026-05-01 14:02 59.79750 30.25916 89 ft 0 kts 284°